Year,Month,Day,Hour,Minute,Value (Times are PST for temperature in C)
2015,07,10,00,00,22.40
2015,07,10,00,01,22.40
2015,07,10,00,02,22.40
2015,07,10,00,03,22.30
2015,07,10,00,04,22.30
2015,07,10,00,05,22.30
2015,07,10,00,06,22.30
2015,07,10,00,07,22.30
2015,07,10,00,08,22.30
2015,07,10,00,09,22.30
2015,07,10,00,10,22.30
2015,07,10,00,11,22.30
2015,07,10,00,12,22.30
2015,07,10,00,13,22.30
2015,07,10,00,14,22.30
2015,07,10,00,15,22.30
2015,07,10,00,16,22.30
2015,07,10,00,17,22.30
2015,07,10,00,18,22.30
2015,07,10,00,19,22.30
2015,07,10,00,20,22.30
2015,07,10,00,21,22.30
2015,07,10,00,22,22.30
2015,07,10,00,23,22.30
2015,07,10,00,24,22.30
2015,07,10,00,25,22.30
2015,07,10,00,26,22.30
2015,07,10,00,27,22.30
2015,07,10,00,28,22.30
2015,07,10,00,29,22.30
2015,07,10,00,30,22.30
2015,07,10,00,31,22.30
2015,07,10,00,32,22.40
2015,07,10,00,33,22.40
2015,07,10,00,34,22.40
2015,07,10,00,35,22.30
2015,07,10,00,36,22.30
2015,07,10,00,37,22.30
2015,07,10,00,38,22.30
2015,07,10,00,39,22.30
2015,07,10,00,40,22.40
2015,07,10,00,41,22.40
2015,07,10,00,42,22.40
2015,07,10,00,43,22.40
2015,07,10,00,44,22.50
2015,07,10,00,45,22.50
2015,07,10,00,46,22.50
2015,07,10,00,47,22.60
2015,07,10,00,48,22.60
2015,07,10,00,49,22.60
2015,07,10,00,50,22.60
2015,07,10,00,51,22.60
2015,07,10,00,52,22.50
2015,07,10,00,53,22.50
2015,07,10,00,54,22.50
2015,07,10,00,55,22.50
2015,07,10,00,56,22.40
2015,07,10,00,57,22.40
2015,07,10,00,58,22.40
2015,07,10,00,59,22.40
2015,07,10,01,00,22.40
2015,07,10,01,01,22.40
2015,07,10,01,02,22.40
2015,07,10,01,03,22.40
2015,07,10,01,04,22.40
2015,07,10,01,05,22.30
2015,07,10,01,06,22.30
2015,07,10,01,07,22.30
2015,07,10,01,08,22.20
2015,07,10,01,09,22.20
2015,07,10,01,10,22.10
2015,07,10,01,11,22.10
2015,07,10,01,12,22.10
2015,07,10,01,13,22.10
2015,07,10,01,14,22.10
2015,07,10,01,15,22.10
2015,07,10,01,16,22.10
2015,07,10,01,17,22.10
2015,07,10,01,18,22.10
2015,07,10,01,19,22.10
2015,07,10,01,20,22.10
2015,07,10,01,21,22.10
2015,07,10,01,22,22.10
2015,07,10,01,23,22.00
2015,07,10,01,24,21.80
2015,07,10,01,25,21.70
2015,07,10,01,26,21.50
2015,07,10,01,27,21.40
2015,07,10,01,28,21.40
2015,07,10,01,29,21.30
2015,07,10,01,30,21.30
2015,07,10,01,31,21.20
2015,07,10,01,32,21.20
2015,07,10,01,33,21.20
2015,07,10,01,34,21.20
2015,07,10,01,35,21.20
2015,07,10,01,36,21.20
2015,07,10,01,37,21.10
2015,07,10,01,38,21.10
2015,07,10,01,39,21.10
2015,07,10,01,40,21.10
2015,07,10,01,41,21.00
2015,07,10,01,42,21.00
2015,07,10,01,43,20.90
2015,07,10,01,44,20.90
2015,07,10,01,45,20.90
2015,07,10,01,46,20.80
2015,07,10,01,47,20.80
2015,07,10,01,48,20.80
2015,07,10,01,49,20.80
2015,07,10,01,50,20.80
2015,07,10,01,51,20.80
2015,07,10,01,52,20.80
2015,07,10,01,53,20.80
2015,07,10,01,54,20.80
2015,07,10,01,55,20.80
2015,07,10,01,56,20.80
2015,07,10,01,57,20.80
2015,07,10,01,58,20.80
2015,07,10,01,59,20.80
2015,07,10,02,00,20.80
2015,07,10,02,01,20.80
2015,07,10,02,02,20.80
2015,07,10,02,03,20.80
2015,07,10,02,04,20.90
2015,07,10,02,05,20.90
2015,07,10,02,06,20.90
2015,07,10,02,07,21.00
2015,07,10,02,08,21.00
2015,07,10,02,09,21.00
2015,07,10,02,10,21.10
2015,07,10,02,11,21.10
2015,07,10,02,12,21.10
2015,07,10,02,13,21.10
2015,07,10,02,14,21.10
2015,07,10,02,15,21.00
2015,07,10,02,16,21.00
2015,07,10,02,17,20.90
2015,07,10,02,18,20.90
2015,07,10,02,19,20.90
2015,07,10,02,20,20.90
2015,07,10,02,21,20.90
2015,07,10,02,22,20.80
2015,07,10,02,23,20.80
2015,07,10,02,24,20.80
2015,07,10,02,25,20.80
2015,07,10,02,26,20.80
2015,07,10,02,27,20.80
2015,07,10,02,28,20.80
2015,07,10,02,29,20.70
2015,07,10,02,30,20.70
2015,07,10,02,31,20.80
2015,07,10,02,32,20.80
2015,07,10,02,33,20.80
2015,07,10,02,34,20.80
2015,07,10,02,35,20.80
2015,07,10,02,36,20.80
2015,07,10,02,37,20.80
2015,07,10,02,38,20.80
2015,07,10,02,39,20.80
2015,07,10,02,40,20.70
2015,07,10,02,41,20.70
2015,07,10,02,42,20.70
2015,07,10,02,43,20.70
2015,07,10,02,44,20.70
2015,07,10,02,45,20.70
2015,07,10,02,46,20.80
2015,07,10,02,47,20.80
2015,07,10,02,48,20.90
2015,07,10,02,49,20.90
2015,07,10,02,50,20.90
2015,07,10,02,51,20.90
2015,07,10,02,52,20.90
2015,07,10,02,53,20.90
2015,07,10,02,54,20.90
2015,07,10,02,55,20.90
2015,07,10,02,56,20.90
2015,07,10,02,57,20.90
2015,07,10,02,58,20.80
2015,07,10,02,59,20.80
2015,07,10,03,00,20.80
2015,07,10,03,01,20.80
2015,07,10,03,02,20.80
2015,07,10,03,03,20.70
2015,07,10,03,04,20.70
2015,07,10,03,05,20.70
2015,07,10,03,06,20.70
2015,07,10,03,07,20.60
2015,07,10,03,08,20.60
2015,07,10,03,09,20.60
2015,07,10,03,10,20.50
2015,07,10,03,11,20.40
2015,07,10,03,12,20.40
2015,07,10,03,13,20.30
2015,07,10,03,14,20.30
2015,07,10,03,15,20.20
2015,07,10,03,16,20.20
2015,07,10,03,17,20.10
2015,07,10,03,18,20.10
2015,07,10,03,19,20.00
2015,07,10,03,20,20.00
2015,07,10,03,21,19.90
2015,07,10,03,22,19.90
2015,07,10,03,23,19.80
2015,07,10,03,24,19.80
2015,07,10,03,25,19.80
2015,07,10,03,26,19.70
2015,07,10,03,27,19.70
2015,07,10,03,28,19.80
2015,07,10,03,29,19.90
2015,07,10,03,30,20.10
2015,07,10,03,31,20.10
2015,07,10,03,32,20.20
2015,07,10,03,33,20.20
2015,07,10,03,34,20.20
2015,07,10,03,35,20.20
2015,07,10,03,36,20.20
2015,07,10,03,37,20.20
2015,07,10,03,38,20.20
2015,07,10,03,39,20.20
2015,07,10,03,40,20.20
2015,07,10,03,41,20.20
2015,07,10,03,42,20.20
2015,07,10,03,43,20.10
2015,07,10,03,44,20.10
2015,07,10,03,45,20.10
2015,07,10,03,46,20.00
2015,07,10,03,47,20.00
2015,07,10,03,48,19.90
2015,07,10,03,49,19.90
2015,07,10,03,50,19.80
2015,07,10,03,51,19.80
2015,07,10,03,52,19.70
2015,07,10,03,53,19.60
2015,07,10,03,54,19.60
2015,07,10,03,55,19.50
2015,07,10,03,56,19.50
2015,07,10,03,57,19.40
2015,07,10,03,58,19.30
2015,07,10,03,59,19.30
2015,07,10,04,00,19.20
2015,07,10,04,01,19.20
2015,07,10,04,02,19.10
2015,07,10,04,03,19.00
2015,07,10,04,04,19.00
2015,07,10,04,05,18.90
2015,07,10,04,06,18.90
2015,07,10,04,07,18.80
2015,07,10,04,08,18.80
2015,07,10,04,09,18.80
2015,07,10,04,10,18.70
2015,07,10,04,11,18.70
2015,07,10,04,12,18.60
2015,07,10,04,13,18.60
2015,07,10,04,14,18.50
2015,07,10,04,15,18.50
2015,07,10,04,16,18.40
2015,07,10,04,17,18.40
2015,07,10,04,18,18.40
2015,07,10,04,19,18.30
2015,07,10,04,20,18.30
2015,07,10,04,21,18.30
2015,07,10,04,22,18.20
2015,07,10,04,23,18.20
2015,07,10,04,24,18.10
2015,07,10,04,25,18.10
2015,07,10,04,26,18.00
2015,07,10,04,27,18.00
2015,07,10,04,28,17.90
2015,07,10,04,29,17.90
2015,07,10,04,30,17.90
2015,07,10,04,31,17.80
2015,07,10,04,32,17.80
2015,07,10,04,33,17.80
2015,07,10,04,34,17.70
2015,07,10,04,35,17.70
2015,07,10,04,36,17.70
2015,07,10,04,37,17.60
2015,07,10,04,38,17.60
2015,07,10,04,39,17.60
2015,07,10,04,40,17.60
2015,07,10,04,41,17.50
2015,07,10,04,42,17.50
2015,07,10,04,43,17.40
2015,07,10,04,44,17.40
2015,07,10,04,45,17.40
2015,07,10,04,46,17.40
2015,07,10,04,47,17.40
2015,07,10,04,48,17.30
2015,07,10,04,49,17.30
2015,07,10,04,50,17.30
2015,07,10,04,51,17.30
2015,07,10,04,52,17.30
2015,07,10,04,53,17.30
2015,07,10,04,54,17.30
2015,07,10,04,55,17.30
2015,07,10,04,56,17.40
2015,07,10,04,57,17.40
2015,07,10,04,58,17.40
2015,07,10,04,59,17.40
2015,07,10,05,00,17.40
2015,07,10,05,01,17.40
2015,07,10,05,02,17.40
2015,07,10,05,03,17.40
2015,07,10,05,04,17.40
2015,07,10,05,05,17.40
2015,07,10,05,06,17.40
2015,07,10,05,07,17.30
2015,07,10,05,08,17.30
2015,07,10,05,09,17.30
2015,07,10,05,10,17.30
2015,07,10,05,11,17.30
2015,07,10,05,12,17.30
2015,07,10,05,13,17.30
2015,07,10,05,14,17.30
2015,07,10,05,15,17.30
2015,07,10,05,16,17.30
2015,07,10,05,17,17.30
2015,07,10,05,18,17.30
2015,07,10,05,19,17.20
2015,07,10,05,20,17.20
2015,07,10,05,21,17.20
2015,07,10,05,22,17.20
2015,07,10,05,23,17.20
2015,07,10,05,24,17.20
2015,07,10,05,25,17.20
2015,07,10,05,26,17.20
2015,07,10,05,27,17.20
2015,07,10,05,28,17.20
2015,07,10,05,29,17.20
2015,07,10,05,30,17.10
2015,07,10,05,31,17.10
2015,07,10,05,32,17.10
2015,07,10,05,33,17.10
2015,07,10,05,34,17.10
2015,07,10,05,35,17.10
2015,07,10,05,36,17.10
2015,07,10,05,37,17.10
2015,07,10,05,38,17.10
2015,07,10,05,39,17.10
2015,07,10,05,40,17.00
2015,07,10,05,41,17.00
2015,07,10,05,42,16.90
2015,07,10,05,43,16.90
2015,07,10,05,44,16.90
2015,07,10,05,45,16.90
2015,07,10,05,46,16.90
2015,07,10,05,47,16.90
2015,07,10,05,48,16.90
2015,07,10,05,49,16.90
2015,07,10,05,50,16.90
2015,07,10,05,51,16.90
2015,07,10,05,52,16.90
2015,07,10,05,53,16.90
2015,07,10,05,54,16.90
2015,07,10,05,55,16.90
2015,07,10,05,56,16.90
2015,07,10,05,57,16.90
2015,07,10,05,58,16.90
2015,07,10,05,59,16.80
2015,07,10,06,00,16.80
2015,07,10,06,01,16.80
2015,07,10,06,02,16.80
2015,07,10,06,03,16.80
2015,07,10,06,04,16.80
2015,07,10,06,05,16.80
2015,07,10,06,06,16.90
2015,07,10,06,07,16.90
2015,07,10,06,08,16.90
2015,07,10,06,09,16.90
2015,07,10,06,10,16.90
2015,07,10,06,11,16.90
2015,07,10,06,12,17.00
2015,07,10,06,13,17.00
2015,07,10,06,14,17.10
2015,07,10,06,15,17.10
2015,07,10,06,16,17.10
2015,07,10,06,17,17.20
2015,07,10,06,18,17.20
2015,07,10,06,19,17.20
2015,07,10,06,20,17.20
2015,07,10,06,21,17.20
2015,07,10,06,22,17.30
2015,07,10,06,23,17.30
2015,07,10,06,24,17.30
2015,07,10,06,25,17.30
2015,07,10,06,26,17.30
2015,07,10,06,27,17.30
2015,07,10,06,28,17.40
2015,07,10,06,29,17.40
2015,07,10,06,30,17.40
2015,07,10,06,31,17.40
2015,07,10,06,32,17.40
2015,07,10,06,33,17.50
2015,07,10,06,34,17.50
2015,07,10,06,35,17.50
2015,07,10,06,36,17.50
2015,07,10,06,37,17.60
2015,07,10,06,38,17.60
2015,07,10,06,39,17.60
2015,07,10,06,40,17.60
2015,07,10,06,41,17.60
2015,07,10,06,42,17.70
2015,07,10,06,43,17.70
2015,07,10,06,44,17.70
2015,07,10,06,45,17.70
2015,07,10,06,46,17.70
2015,07,10,06,47,17.70
2015,07,10,06,48,17.70
2015,07,10,06,49,17.70
2015,07,10,06,50,17.80
2015,07,10,06,51,17.80
2015,07,10,06,52,17.80
2015,07,10,06,53,17.80
2015,07,10,06,54,17.80
2015,07,10,06,55,17.80
2015,07,10,06,56,17.80
2015,07,10,06,57,17.80
2015,07,10,06,58,17.90
2015,07,10,06,59,17.90
2015,07,10,07,00,17.90
2015,07,10,07,01,17.90
2015,07,10,07,02,17.90
2015,07,10,07,03,17.90
2015,07,10,07,04,17.90
2015,07,10,07,05,18.00
2015,07,10,07,06,18.00
2015,07,10,07,07,18.00
2015,07,10,07,08,18.00
2015,07,10,07,09,18.00
2015,07,10,07,10,18.10
2015,07,10,07,11,18.10
2015,07,10,07,12,18.10
2015,07,10,07,13,18.10
2015,07,10,07,14,18.10
2015,07,10,07,15,18.10
2015,07,10,07,16,18.10
2015,07,10,07,17,18.10
2015,07,10,07,18,18.20
2015,07,10,07,19,18.20
2015,07,10,07,20,18.20
2015,07,10,07,21,18.20
2015,07,10,07,22,18.20
2015,07,10,07,23,18.20
2015,07,10,07,24,18.20
2015,07,10,07,25,18.20
2015,07,10,07,26,18.30
2015,07,10,07,27,18.30
2015,07,10,07,28,18.30
2015,07,10,07,29,18.30
2015,07,10,07,30,18.30
2015,07,10,07,31,18.30
2015,07,10,07,32,18.40
2015,07,10,07,33,18.40
2015,07,10,07,34,18.40
2015,07,10,07,35,18.40
2015,07,10,07,36,18.40
2015,07,10,07,37,18.40
2015,07,10,07,38,18.40
2015,07,10,07,39,18.40
2015,07,10,07,40,18.40
2015,07,10,07,41,18.50
2015,07,10,07,42,18.50
2015,07,10,07,43,18.50
2015,07,10,07,44,18.50
2015,07,10,07,45,18.50
2015,07,10,07,46,18.50
2015,07,10,07,47,18.60
2015,07,10,07,48,18.60
2015,07,10,07,49,18.60
2015,07,10,07,50,18.60
2015,07,10,07,51,18.60
2015,07,10,07,52,18.60
2015,07,10,07,53,18.60
2015,07,10,07,54,18.70
2015,07,10,07,55,18.70
2015,07,10,07,56,18.70
2015,07,10,07,57,18.70
2015,07,10,07,58,18.70
2015,07,10,07,59,18.80
2015,07,10,08,00,18.80
2015,07,10,08,01,18.80
2015,07,10,08,02,18.80
2015,07,10,08,03,18.80
2015,07,10,08,04,18.80
2015,07,10,08,05,18.80
2015,07,10,08,06,18.80
2015,07,10,08,07,18.80
2015,07,10,08,08,18.80
2015,07,10,08,09,18.80
2015,07,10,08,10,18.80
2015,07,10,08,11,18.80
2015,07,10,08,12,18.80
2015,07,10,08,13,18.90
2015,07,10,08,14,18.90
2015,07,10,08,15,18.90
2015,07,10,08,16,18.90
2015,07,10,08,17,18.90
2015,07,10,08,18,18.90
2015,07,10,08,19,18.90
2015,07,10,08,20,18.90
2015,07,10,08,21,18.90
2015,07,10,08,22,18.90
2015,07,10,08,23,18.90
2015,07,10,08,24,19.00
2015,07,10,08,25,19.10
2015,07,10,08,26,19.10
2015,07,10,08,27,19.10
2015,07,10,08,28,19.20
2015,07,10,08,29,19.20
2015,07,10,08,30,19.20
2015,07,10,08,31,19.30
2015,07,10,08,32,19.30
2015,07,10,08,33,19.40
2015,07,10,08,34,19.40
2015,07,10,08,35,19.40
2015,07,10,08,36,19.40
2015,07,10,08,37,19.30
2015,07,10,08,38,19.30
2015,07,10,08,39,19.30
2015,07,10,08,40,19.30
2015,07,10,08,41,19.20
2015,07,10,08,42,19.20
2015,07,10,08,43,19.20
2015,07,10,08,44,19.20
2015,07,10,08,45,19.20
2015,07,10,08,46,19.20
2015,07,10,08,47,19.20
2015,07,10,08,48,19.20
2015,07,10,08,49,19.20
2015,07,10,08,50,19.20
2015,07,10,08,51,19.20
2015,07,10,08,52,19.20
2015,07,10,08,53,19.20
2015,07,10,08,54,19.20
2015,07,10,08,55,19.20
2015,07,10,08,56,19.20
2015,07,10,08,57,19.20
2015,07,10,08,58,19.30
2015,07,10,08,59,19.30
2015,07,10,09,00,19.30
2015,07,10,09,01,19.30
2015,07,10,09,02,19.30
2015,07,10,09,03,19.30
2015,07,10,09,04,19.40
2015,07,10,09,05,19.40
2015,07,10,09,06,19.40
2015,07,10,09,07,19.50
2015,07,10,09,08,19.50
2015,07,10,09,09,19.60
2015,07,10,09,10,19.60
2015,07,10,09,11,19.60
2015,07,10,09,12,19.60
2015,07,10,09,13,19.60
2015,07,10,09,14,19.60
2015,07,10,09,15,19.60
2015,07,10,09,16,19.60
2015,07,10,09,17,19.70
2015,07,10,09,18,19.70
2015,07,10,09,19,19.80
2015,07,10,09,20,19.80
2015,07,10,09,21,19.90
2015,07,10,09,22,19.90
2015,07,10,09,23,19.90
2015,07,10,09,24,19.90
2015,07,10,09,25,19.90
2015,07,10,09,26,19.90
2015,07,10,09,27,19.90
2015,07,10,09,28,19.90
2015,07,10,09,29,19.90
2015,07,10,09,30,19.90
2015,07,10,09,31,19.90
2015,07,10,09,32,20.00
2015,07,10,09,33,20.00
2015,07,10,09,34,20.00
2015,07,10,09,35,19.90
2015,07,10,09,36,19.80
2015,07,10,09,37,19.70
2015,07,10,09,38,19.70
2015,07,10,09,39,19.80
2015,07,10,09,40,19.80
2015,07,10,09,41,19.80
2015,07,10,09,42,19.80
2015,07,10,09,43,19.80
2015,07,10,09,44,19.80
2015,07,10,09,45,19.80
2015,07,10,09,46,19.90
2015,07,10,09,47,19.90
2015,07,10,09,48,20.00
2015,07,10,09,49,19.90
2015,07,10,09,50,20.00
2015,07,10,09,51,20.00
2015,07,10,09,52,19.90
2015,07,10,09,53,19.90
2015,07,10,09,54,19.90
2015,07,10,09,55,19.90
2015,07,10,09,56,19.80
2015,07,10,09,57,19.80
2015,07,10,09,58,19.70
2015,07,10,09,59,19.60
2015,07,10,10,00,19.60
2015,07,10,10,01,19.50
2015,07,10,10,02,19.40
2015,07,10,10,03,19.40
2015,07,10,10,04,19.40
2015,07,10,10,05,19.40
2015,07,10,10,06,19.40
2015,07,10,10,07,19.30
2015,07,10,10,08,19.30
2015,07,10,10,09,19.40
2015,07,10,10,10,19.40
2015,07,10,10,11,19.40
2015,07,10,10,12,19.40
2015,07,10,10,13,19.50
2015,07,10,10,14,19.50
2015,07,10,10,15,19.60
2015,07,10,10,16,19.60
2015,07,10,10,17,19.70
2015,07,10,10,18,19.80
2015,07,10,10,19,19.80
2015,07,10,10,20,19.90
2015,07,10,10,21,20.00
2015,07,10,10,22,20.10
2015,07,10,10,23,20.10
2015,07,10,10,24,20.20
2015,07,10,10,25,20.10
2015,07,10,10,26,20.10
2015,07,10,10,27,20.10
2015,07,10,10,28,20.10
2015,07,10,10,29,20.10
2015,07,10,10,30,20.10
2015,07,10,10,31,20.20
2015,07,10,10,32,20.20
2015,07,10,10,33,20.30
2015,07,10,10,34,20.40
2015,07,10,10,35,20.40
2015,07,10,10,36,20.40
2015,07,10,10,37,20.40
2015,07,10,10,38,20.40
2015,07,10,10,39,20.40
2015,07,10,10,40,20.50
2015,07,10,10,41,20.50
2015,07,10,10,42,20.60
2015,07,10,10,43,20.70
2015,07,10,10,44,20.80
2015,07,10,10,45,20.90
2015,07,10,10,46,21.00
2015,07,10,10,47,21.10
2015,07,10,10,48,21.10
2015,07,10,10,49,21.10
2015,07,10,10,50,21.20
2015,07,10,10,51,21.20
2015,07,10,10,52,21.10
2015,07,10,10,53,21.00
2015,07,10,10,54,21.00
2015,07,10,10,55,20.90
2015,07,10,10,56,20.90
2015,07,10,10,57,20.90
2015,07,10,10,58,20.80
2015,07,10,10,59,20.80
2015,07,10,11,00,20.70
2015,07,10,11,01,20.70
2015,07,10,11,02,20.70
2015,07,10,11,03,20.70
2015,07,10,11,04,20.70
2015,07,10,11,05,20.70
2015,07,10,11,06,20.70
2015,07,10,11,07,20.70
2015,07,10,11,08,20.70
2015,07,10,11,09,20.70
2015,07,10,11,10,20.70
2015,07,10,11,11,20.60
2015,07,10,11,12,20.60
2015,07,10,11,13,20.50
2015,07,10,11,14,20.50
2015,07,10,11,15,20.40
2015,07,10,11,16,20.40
2015,07,10,11,17,20.30
2015,07,10,11,18,20.40
2015,07,10,11,19,20.40
2015,07,10,11,20,20.50
2015,07,10,11,21,20.50
2015,07,10,11,22,20.50
2015,07,10,11,23,20.60
2015,07,10,11,24,20.60
2015,07,10,11,25,20.60
2015,07,10,11,26,20.70
2015,07,10,11,27,20.80
2015,07,10,11,28,20.80
2015,07,10,11,29,20.90
2015,07,10,11,30,20.90
2015,07,10,11,31,20.90
2015,07,10,11,32,20.80
2015,07,10,11,33,20.80
2015,07,10,11,34,20.80
2015,07,10,11,35,20.70
2015,07,10,11,36,20.70
2015,07,10,11,37,20.60
2015,07,10,11,38,20.60
2015,07,10,11,39,20.70
2015,07,10,11,40,20.80
2015,07,10,11,41,20.80
2015,07,10,11,42,20.90
2015,07,10,11,43,20.90
2015,07,10,11,44,20.80
2015,07,10,11,45,20.70
2015,07,10,11,46,20.70
2015,07,10,11,47,20.80
2015,07,10,11,48,20.80
2015,07,10,11,49,20.80
2015,07,10,11,50,20.70
2015,07,10,11,51,20.70
2015,07,10,11,52,20.60
2015,07,10,11,53,20.70
2015,07,10,11,54,20.70
2015,07,10,11,55,20.80
2015,07,10,11,56,20.80
2015,07,10,11,57,20.80
2015,07,10,11,58,20.80
2015,07,10,11,59,20.80
2015,07,10,12,00,20.90
2015,07,10,12,01,21.00
2015,07,10,12,02,21.10
2015,07,10,12,03,21.20
2015,07,10,12,04,21.20
2015,07,10,12,05,21.20
2015,07,10,12,06,21.20
2015,07,10,12,07,21.20
2015,07,10,12,08,21.20
2015,07,10,12,09,21.30
2015,07,10,12,10,21.30
2015,07,10,12,11,21.30
2015,07,10,12,12,21.20
2015,07,10,12,13,21.20
2015,07,10,12,14,21.10
2015,07,10,12,15,21.10
2015,07,10,12,16,21.20
2015,07,10,12,17,21.20
2015,07,10,12,18,21.30
2015,07,10,12,19,21.30
2015,07,10,12,20,21.20
2015,07,10,12,21,21.10
2015,07,10,12,22,21.00
2015,07,10,12,23,20.90
2015,07,10,12,24,20.90
2015,07,10,12,25,21.00
2015,07,10,12,26,21.10
2015,07,10,12,27,21.20
2015,07,10,12,28,21.30
2015,07,10,12,29,21.40
2015,07,10,12,30,21.50
2015,07,10,12,31,21.50
2015,07,10,12,32,21.50
2015,07,10,12,33,21.40
2015,07,10,12,34,21.40
2015,07,10,12,35,21.30
2015,07,10,12,36,21.20
2015,07,10,12,37,21.10
2015,07,10,12,38,21.10
2015,07,10,12,39,21.10
2015,07,10,12,40,21.10
2015,07,10,12,41,21.20
2015,07,10,12,42,21.20
2015,07,10,12,43,21.20
2015,07,10,12,44,21.30
2015,07,10,12,45,21.40
2015,07,10,12,46,21.40
2015,07,10,12,47,21.50
2015,07,10,12,48,21.60
2015,07,10,12,49,21.60
2015,07,10,12,50,21.50
2015,07,10,12,51,21.50
2015,07,10,12,52,21.40
2015,07,10,12,53,21.40
2015,07,10,12,54,21.40
2015,07,10,12,55,21.50
2015,07,10,12,56,21.50
2015,07,10,12,57,21.60
2015,07,10,12,58,21.70
2015,07,10,12,59,21.80
2015,07,10,13,00,21.80
2015,07,10,13,01,21.90
2015,07,10,13,02,21.90
2015,07,10,13,03,21.90
2015,07,10,13,04,21.90
2015,07,10,13,05,21.90
2015,07,10,13,06,21.90
2015,07,10,13,07,21.90
2015,07,10,13,08,21.90
2015,07,10,13,09,22.00
2015,07,10,13,10,22.10
2015,07,10,13,11,22.10
2015,07,10,13,12,22.20
2015,07,10,13,13,22.10
2015,07,10,13,14,22.10
2015,07,10,13,15,22.10
2015,07,10,13,16,22.00
2015,07,10,13,17,21.90
2015,07,10,13,18,21.80
2015,07,10,13,19,21.80
2015,07,10,13,20,21.70
2015,07,10,13,21,21.70
2015,07,10,13,22,21.70
2015,07,10,13,23,21.80
2015,07,10,13,24,21.90
2015,07,10,13,25,21.90
2015,07,10,13,26,22.00
2015,07,10,13,27,22.10
2015,07,10,13,28,22.10
2015,07,10,13,29,22.00
2015,07,10,13,30,22.00
2015,07,10,13,31,21.90
2015,07,10,13,32,21.80
2015,07,10,13,33,21.80
2015,07,10,13,34,21.90
2015,07,10,13,35,21.80
2015,07,10,13,36,21.70
2015,07,10,13,37,21.70
2015,07,10,13,38,21.60
2015,07,10,13,39,21.60
2015,07,10,13,40,21.60
2015,07,10,13,41,21.70
2015,07,10,13,42,21.70
2015,07,10,13,43,21.80
2015,07,10,13,44,21.80
2015,07,10,13,45,21.80
2015,07,10,13,46,21.70
2015,07,10,13,47,21.60
2015,07,10,13,48,21.60
2015,07,10,13,49,21.60
2015,07,10,13,50,21.70
2015,07,10,13,51,21.80
2015,07,10,13,52,21.80
2015,07,10,13,53,21.80
2015,07,10,13,54,21.80
2015,07,10,13,55,21.80
2015,07,10,13,56,21.90
2015,07,10,13,57,21.90
2015,07,10,13,58,22.00
2015,07,10,13,59,22.00
2015,07,10,14,00,21.90
2015,07,10,14,01,21.90
2015,07,10,14,02,21.80
2015,07,10,14,03,21.70
2015,07,10,14,04,21.70
2015,07,10,14,05,21.70
2015,07,10,14,06,21.80
2015,07,10,14,07,21.80
2015,07,10,14,08,21.90
2015,07,10,14,09,22.00
2015,07,10,14,10,22.10
2015,07,10,14,11,22.20
2015,07,10,14,12,22.30
2015,07,10,14,13,22.40
2015,07,10,14,14,22.40
2015,07,10,14,15,22.40
2015,07,10,14,16,22.30
2015,07,10,14,17,22.20
2015,07,10,14,18,22.20
2015,07,10,14,19,22.10
2015,07,10,14,20,22.00
2015,07,10,14,21,22.00
2015,07,10,14,22,22.00
2015,07,10,14,23,22.00
2015,07,10,14,24,21.90
2015,07,10,14,25,21.90
2015,07,10,14,26,21.90
2015,07,10,14,27,21.90
2015,07,10,14,28,22.00
2015,07,10,14,29,22.00
2015,07,10,14,30,22.10
2015,07,10,14,31,22.10
2015,07,10,14,32,22.10
2015,07,10,14,33,22.10
2015,07,10,14,34,22.10
2015,07,10,14,35,22.10
2015,07,10,14,36,22.10
2015,07,10,14,37,22.10
2015,07,10,14,38,22.20
2015,07,10,14,39,22.20
2015,07,10,14,40,22.30
2015,07,10,14,41,22.20
2015,07,10,14,42,22.20
2015,07,10,14,43,22.20
2015,07,10,14,44,22.10
2015,07,10,14,45,22.10
2015,07,10,14,46,22.10
2015,07,10,14,47,22.30
2015,07,10,14,48,22.30
2015,07,10,14,49,22.40
2015,07,10,14,50,22.50
2015,07,10,14,51,22.50
2015,07,10,14,52,22.60
2015,07,10,14,53,22.60
2015,07,10,14,54,22.60
2015,07,10,14,55,22.60
2015,07,10,14,56,22.60
2015,07,10,14,57,22.60
2015,07,10,14,58,22.60
2015,07,10,14,59,22.60
2015,07,10,15,00,22.60
2015,07,10,15,01,22.70
2015,07,10,15,02,22.70
2015,07,10,15,03,22.70
2015,07,10,15,04,22.80
2015,07,10,15,05,22.80
2015,07,10,15,06,22.80
2015,07,10,15,07,22.80
2015,07,10,15,08,22.70
2015,07,10,15,09,22.70
2015,07,10,15,10,22.60
2015,07,10,15,11,22.60
2015,07,10,15,12,22.60
2015,07,10,15,13,22.60
2015,07,10,15,14,22.60
2015,07,10,15,15,22.60
2015,07,10,15,16,22.50
2015,07,10,15,17,22.30
2015,07,10,15,18,22.30
2015,07,10,15,19,22.20
2015,07,10,15,20,22.30
2015,07,10,15,21,22.30
2015,07,10,15,22,22.30
2015,07,10,15,23,22.40
2015,07,10,15,24,22.40
2015,07,10,15,25,22.30
2015,07,10,15,26,22.30
2015,07,10,15,27,22.20
2015,07,10,15,28,22.20
2015,07,10,15,29,22.30
2015,07,10,15,30,22.30
2015,07,10,15,31,22.40
2015,07,10,15,32,22.40
2015,07,10,15,33,22.50
2015,07,10,15,34,22.60
2015,07,10,15,35,22.70
2015,07,10,15,36,22.70
2015,07,10,15,37,22.60
2015,07,10,15,38,22.50
2015,07,10,15,39,22.60
2015,07,10,15,40,22.50
2015,07,10,15,41,22.50
2015,07,10,15,42,22.40
2015,07,10,15,43,22.40
2015,07,10,15,44,22.50
2015,07,10,15,45,22.50
2015,07,10,15,46,22.50
2015,07,10,15,47,22.50
2015,07,10,15,48,22.40
2015,07,10,15,49,22.30
2015,07,10,15,50,22.20
2015,07,10,15,51,22.10
2015,07,10,15,52,22.00
2015,07,10,15,53,22.00
2015,07,10,15,54,21.90
2015,07,10,15,55,21.90
2015,07,10,15,56,21.90
2015,07,10,15,57,22.00
2015,07,10,15,58,22.10
2015,07,10,15,59,22.10
2015,07,10,16,00,22.10
2015,07,10,16,01,22.10
2015,07,10,16,02,22.10
2015,07,10,16,03,22.20
2015,07,10,16,04,22.20
2015,07,10,16,05,22.20
2015,07,10,16,06,22.20
2015,07,10,16,07,22.30
2015,07,10,16,08,22.30
2015,07,10,16,09,22.20
2015,07,10,16,10,22.20
2015,07,10,16,11,22.10
2015,07,10,16,12,22.10
2015,07,10,16,13,22.10
2015,07,10,16,14,22.20
2015,07,10,16,15,22.20
2015,07,10,16,16,22.20
2015,07,10,16,17,22.20
2015,07,10,16,18,22.20
2015,07,10,16,19,22.30
2015,07,10,16,20,22.30
2015,07,10,16,21,22.20
2015,07,10,16,22,22.20
2015,07,10,16,23,22.20
2015,07,10,16,24,22.10
2015,07,10,16,25,22.10
2015,07,10,16,26,22.10
2015,07,10,16,27,22.00
2015,07,10,16,28,22.10
2015,07,10,16,29,22.00
2015,07,10,16,30,22.00
2015,07,10,16,31,21.90
2015,07,10,16,32,21.90
2015,07,10,16,33,21.90
2015,07,10,16,34,21.90
2015,07,10,16,35,21.90
2015,07,10,16,36,22.00
2015,07,10,16,37,22.00
2015,07,10,16,38,22.10
2015,07,10,16,39,22.20
2015,07,10,16,40,22.30
2015,07,10,16,41,22.30
2015,07,10,16,42,22.30
2015,07,10,16,43,22.30
2015,07,10,16,44,22.40
2015,07,10,16,45,22.30
2015,07,10,16,46,22.30
2015,07,10,16,47,22.30
2015,07,10,16,48,22.30
2015,07,10,16,49,22.30
2015,07,10,16,50,22.30
2015,07,10,16,51,22.20
2015,07,10,16,52,22.20
2015,07,10,16,53,22.10
2015,07,10,16,54,22.10
2015,07,10,16,55,22.00
2015,07,10,16,56,22.00
2015,07,10,16,57,22.10
2015,07,10,16,58,22.10
2015,07,10,16,59,22.20
2015,07,10,17,00,22.30
2015,07,10,17,01,22.30
2015,07,10,17,02,22.30
2015,07,10,17,03,22.30
2015,07,10,17,04,22.30
2015,07,10,17,05,22.30
2015,07,10,17,06,22.30
2015,07,10,17,07,22.20
2015,07,10,17,08,22.20
2015,07,10,17,09,22.30
2015,07,10,17,10,22.30
2015,07,10,17,11,22.30
2015,07,10,17,12,22.30
2015,07,10,17,13,22.30
2015,07,10,17,14,22.20
2015,07,10,17,15,22.10
2015,07,10,17,16,22.10
2015,07,10,17,17,22.10
2015,07,10,17,18,22.10
2015,07,10,17,19,22.10